TimeCDT,TemperatureF,Dew PointF,Humidity,Sea Level PressureIn,VisibilityMPH,Wind Direction,Wind SpeedMPH,Gust SpeedMPH,PrecipitationIn,Events,Conditions,WindDirDegrees,DateUTC
12:51 AM,69.1,64.0,84,29.89,10.0,SSE,11.5,-,N/A,,Partly Cloudy,160,2014-05-06 05:51:00
1:51 AM,68.0,64.0,87,29.87,10.0,SSE,10.4,-,N/A,,Partly Cloudy,150,2014-05-06 06:51:00
2:51 AM,68.0,64.9,90,29.84,10.0,SSE,8.1,-,N/A,,Partly Cloudy,150,2014-05-06 07:51:00
6:51 AM,70.0,66.0,87,29.83,10.0,SSE,12.7,-,N/A,,Mostly Cloudy,150,2014-05-06 11:51:00
7:51 AM,72.0,66.0,81,29.84,10.0,SSE,16.1,-,N/A,,Mostly Cloudy,150,2014-05-06 12:51:00
9:51 AM,75.9,66.0,71,29.86,10.0,SSE,17.3,-,N/A,,Overcast,160,2014-05-06 14:51:00
10:51 AM,77.0,66.9,71,29.86,10.0,SSE,19.6,25.3,N/A,,Overcast,150,2014-05-06 15:51:00
11:51 AM,81.0,66.9,62,29.86,10.0,SSE,18.4,27.6,N/A,,Mostly Cloudy,150,2014-05-06 16:51:00
12:51 PM,81.0,66.9,62,29.85,10.0,SSE,23.0,29.9,N/A,,Mostly Cloudy,150,2014-05-06 17:51:00
1:51 PM,82.9,68.0,60,29.82,10.0,SSE,23.0,-,N/A,,Mostly Cloudy,150,2014-05-06 18:51:00
2:51 PM,82.9,68.0,60,29.81,10.0,SSE,25.3,-,0.00,,Mostly Cloudy,160,2014-05-06 19:51:00
3:51 PM,82.9,68.0,60,29.78,10.0,SE,26.5,35.7,N/A,,Mostly Cloudy,140,2014-05-06 20:51:00
4:51 PM,82.0,68.0,62,29.76,10.0,SE,27.6,35.7,N/A,,Mostly Cloudy,140,2014-05-06 21:51:00
5:32 PM,81.0,68.0,65,29.75,10.0,SSE,28.8,36.8,N/A,,Mostly Cloudy,150,2014-05-06 22:32:00
5:51 PM,80.1,68.0,67,29.75,10.0,SE,27.6,34.5,N/A,,Mostly Cloudy,140,2014-05-06 22:51:00
6:51 PM,79.0,68.0,69,29.76,10.0,SSE,27.6,34.5,N/A,,Mostly Cloudy,150,2014-05-06 23:51:00
7:42 PM,75.9,68.0,76,29.78,10.0,SE,21.9,31.1,N/A,,Overcast,140,2014-05-07 00:42:00
7:51 PM,75.9,68.0,76,29.78,10.0,SSE,23.0,31.1,N/A,,Overcast,150,2014-05-07 00:51:00
8:51 PM,75.0,68.0,79,29.80,10.0,SE,20.7,-,N/A,,Overcast,140,2014-05-07 01:51:00
9:13 PM,75.0,68.0,79,29.80,10.0,SE,21.9,-,N/A,,Overcast,140,2014-05-07 02:13:00
9:51 PM,75.0,68.0,79,29.81,10.0,SE,24.2,-,N/A,,Overcast,140,2014-05-07 02:51:00
10:51 PM,73.9,68.0,82,29.84,10.0,SE,16.1,-,N/A,,Overcast,140,2014-05-07 03:51:00
11:25 PM,73.9,68.0,82,29.84,10.0,SE,18.4,-,N/A,,Overcast,140,2014-05-07 04:25:00
11:41 PM,73.9,68.0,82,29.84,10.0,SE,18.4,-,N/A,,Overcast,140,2014-05-07 04:41:00
11:51 PM,73.4,68.0,83,29.84,10.0,SE,20.7,-,N/A,,Overcast,140,2014-05-07 04:51:00